FW6667 Weather Reports


time (UTC)temp
C
wind
direction
speed
KPH
gust
KPH
rain 1hr
cm
rain 24hr
cm
rain mn
cm
humidity
%
barometer
mb
20260507074033 18 151 3.2 4.8 0.00 0.05 0.05 78 1017.6
20260507073014 18 166 3.2 4.8 0.00 0.05 0.05 77 1017.6
20260507072013 18 157 1.6 4.8 0.00 0.05 0.05 78 1017.3
20260507071014 17 155 3.2 4.8 0.00 0.05 0.05 77 1017.6
20260507070014 17 166 3.2 3.2 0.00 0.05 0.05 80 1017.6
20260507065013 17 160 1.6 3.2 0.00 0.05 0.05 80 1017.3
20260507064013 17 164 1.6 4.8 0.00 0.05 0.05 79 1017.5
20260507063016 17 198 4.8 9.7 0.00 0.05 0.05 77 1017.3
20260507062014 17 177 3.2 4.8 0.00 0.05 0.05 80 1017.3
20260507061016 16 177 1.6 3.2 0.00 0.05 0.05 81 1017.3
20260507060030 16 172 0.0 1.6 0.00 0.05 0.05 84 1017.5
20260507055030 16 174 1.6 4.8 0.00 0.05 0.05 86 1017.3
20260507054029 15 161 3.2 3.2 0.03 0.05 0.05 86 1016.9
20260507053014 15 152 0.0 1.6 0.03 0.05 0.05 87 1016.6
20260507052013 15 161 1.6 3.2 0.03 0.05 0.05 85 1016.9
20260507051015 15 161 3.2 4.8 0.05 0.05 0.05 84 1016.9
20260507050012 15 152 0.0 4.8 0.05 0.05 0.05 85 1016.6
20260507045013 15 170 1.6 4.8 0.05 0.05 0.05 84 1016.9
20260507044024 15 156 1.6 3.2 0.03 0.03 0.03 84 1016.6
20260507043013 15 162 1.6 4.8 0.03 0.03 0.03 81 1016.5
20260507042012 15 170 1.6 3.2 0.03 0.03 0.03 83 1016.4
20260507041011 15 157 3.2 4.8 0.00 0.00 0.00 85 1016.3
20260507040014 15 158 0.0 0.0 0.00 0.00 0.00 93 1016.3
20260507035014 15 158 0.0 0.0 0.00 0.00 0.00 93 1016.3
20260507033013 15 158 0.0 0.0 0.00 0.00 0.00 93 1016.3
20260507032012 15 158 0.0 0.0 0.00 0.00 0.00 93 1015.9
20260507031012 15 157 0.0 0.0 0.00 0.00 0.00 91 1015.9
20260507025013 15 156 1.6 1.6 0.00 0.00 0.00 91 1015.9
20260507024012 15 160 0.0 0.0 0.00 0.00 0.00 90 1015.9
20260507023013 15 160 0.0 0.0 0.00 0.00 0.00 89 1015.9
20260507022014 15 160 0.0 0.0 0.00 0.00 0.00 89 1015.6
20260507020013 15 166 1.6 3.2 0.00 0.00 0.00 89 1015.4
20260507015016 15 165 0.0 0.0 0.00 0.00 0.00 87 1015.3
20260507014032 15 168 0.0 0.0 0.00 0.00 0.00 90 1015.4
20260507013013 15 169 0.0 0.0 0.00 0.00 0.00 90 1015.6
20260507012012 15 169 0.0 0.0 0.00 0.00 0.00 89 1015.5
20260507011013 15 169 0.0 1.6 0.00 0.00 0.00 89 1015.2
20260507010013 15 169 0.0 1.6 0.00 0.00 0.00 88 1015.2
20260507005018 15 169 0.0 1.6 0.00 0.00 0.00 87 1015.2
20260507004013 16 169 0.0 1.6 0.00 0.00 0.00 85 1015.2
20260507003013 16 169 0.0 0.0 0.00 0.00 0.00 83 1015.2
20260507002020 16 169 0.0 0.0 0.00 0.00 0.00 82 1015.2
20260507001011 16 169 0.0 1.6 0.00 0.00 0.00 82 1014.9
20260507000013 16 180 1.6 1.6 0.00 0.00 0.00 82 1015.2
20260506235012 16 166 0.0 0.0 0.00 0.00 0.00 81 1015.2
20260506234013 17 164 0.0 1.6 0.00 0.00 0.00 81 1015.2
20260506233014 17 174 0.0 3.2 0.00 0.00 0.00 80 1015.2
20260506232013 17 171 3.2 8.0 0.00 0.00 0.00 79 1015.0
20260506231015 17 174 1.6 4.8 0.00 0.00 0.00 79 1014.9
20260506230015 17 180 1.6 8.0 0.00 0.00 0.00 78 1015.0
20260506225013 17 173 1.6 3.2 0.00 0.00 0.00 77 1015.2
20260506224013 17 185 1.6 4.8 0.00 0.00 0.00 76 1014.9
20260506223016 17 190 1.6 3.2 0.00 0.00 0.00 75 1014.9
20260506222013 17 174 1.6 4.8 0.00 0.00 0.00 73 1015.0
20260506221012 17 172 1.6 3.2 0.00 0.00 0.00 72 1014.9
20260506220016 17 169 0.0 0.0 0.00 0.00 0.00 71 1014.9
20260506215014 17 169 0.0 1.6 0.00 0.00 0.00 70 1014.8
20260506213013 18 152 0.0 3.2 0.00 0.00 0.00 68 1014.6
20260506212012 18 159 1.6 3.2 0.00 0.00 0.00 65 1014.6
20260506211012 19 163 0.0 1.6 0.00 0.00 0.00 62 1014.5
20260506210012 20 166 0.0 1.6 0.00 0.00 0.00 59 1014.2
20260506204013 20 162 1.6 4.8 0.00 0.00 0.00 56 1014.2
20260506203014 20 169 3.2 4.8 0.00 0.00 0.00 56 1014.1
20260506202019 21 178 1.6 9.7 0.00 0.00 0.00 55 1013.9
20260506201012 20 218 3.2 9.7 0.00 0.00 0.00 55 1013.6
20260506200012 20 186 1.6 3.2 0.00 0.00 0.00 56 1013.5
20260506195013 20 174 1.6 4.8 0.00 0.00 0.00 55 1013.5
20260506194012 18 170 3.2 4.8 0.00 0.00 0.00 60 1013.5
20260506193013 19 167 0.0 0.0 0.00 0.00 0.00 58 1013.3
20260506192013 19 168 1.6 9.7 0.00 0.00 0.00 57 1013.2
20260506191013 18 156 0.0 0.0 0.00 0.00 0.00 64 1012.9
20260506190013 18 155 0.0 0.0 0.00 0.00 0.00 66 1012.9
20260506185014 18 149 0.0 0.0 0.00 0.00 0.00 67 1012.8
20260506184011 19 149 0.0 0.0 0.00 0.00 0.00 62 1012.5
20260506183014 19 149 0.0 0.0 0.00 0.00 0.00 60 1012.5
20260506182013 20 149 0.0 0.0 0.00 0.00 0.00 60 1012.2
20260506181012 20 149 0.0 0.0 0.00 0.00 0.00 60 1012.2
20260506180012 20 149 0.0 0.0 0.00 0.00 0.00 60 1012.2
20260506175013 21 149 0.0 0.0 0.00 0.00 0.00 61 1012.2
20260506174017 21 149 0.0 0.0 0.00 0.00 0.00 59 1012.2
20260506173012 22 149 0.0 0.0 0.00 0.00 0.00 55 1012.3
20260506172012 23 164 0.0 0.0 0.00 0.00 0.00 50 1012.2
20260506171011 23 151 0.0 1.6 0.00 0.00 0.00 50 1011.9
20260506170012 24 157 0.0 3.2 0.00 0.00 0.00 46 1012.1
20260506164012 25 154 0.0 1.6 0.00 0.00 0.00 45 1012.1
20260506163013 25 146 1.6 3.2 0.00 0.00 0.00 43 1012.2
20260506162015 26 152 1.6 4.8 0.00 0.00 0.00 40 1012.2
20260506161011 26 157 1.6 3.2 0.00 0.00 0.00 40 1012.2
20260506155011 26 157 3.2 8.0 0.00 0.00 0.00 38 1012.5
20260506154013 27 146 1.6 9.7 0.00 0.00 0.00 37 1012.5
20260506153011 26 157 6.4 9.7 0.00 0.00 0.00 38 1012.6
20260506152012 26 157 3.2 4.8 0.00 0.00 0.00 38 1012.8
20260506151011 26 155 4.8 9.7 0.00 0.00 0.00 38 1012.7
20260506150018 27 157 3.2 9.7 0.00 0.00 0.00 36 1012.9
20260506145013 27 149 1.6 11.3 0.00 0.00 0.00 35 1012.7
20260506143012 27 157 1.6 9.7 0.00 0.00 0.00 33 1012.9
20260506141012 27 159 4.8 12.9 0.00 0.00 0.00 34 1013.1
20260506140012 27 142 4.8 14.5 0.00 0.00 0.00 36 1013.2
20260506133011 27 167 8.0 11.3 0.00 0.00 0.00 35 1013.5
20260506132010 27 158 3.2 11.3 0.00 0.00 0.00 35 1013.5
20260506131012 27 170 6.4 11.3 0.00 0.00 0.00 34 1013.5
20260506130010 26 174 4.8 14.5 0.00 0.00 0.00 35 1013.9
20260506123011 27 177 6.4 11.3 0.00 0.00 0.00 34 1014.2
20260506121012 26 170 0.0 14.5 0.00 0.00 0.00 35 1014.3
20260506115011 26 215 8.0 14.5 0.00 0.00 0.00 35 1014.9
20260506114011 26 196 8.0 14.5 0.00 0.00 0.00 36 1014.9
20260506112011 26 169 8.0 12.9 0.00 0.00 0.00 38 1015.2
20260506111011 25 164 4.8 16.1 0.00 0.00 0.00 37 1015.2
20260506110012 26 156 4.8 12.9 0.00 0.00 0.00 38 1015.2
20260506105013 25 151 8.0 12.9 0.00 0.00 0.00 36 1015.2
20260506103011 25 167 11.3 14.5 0.00 0.00 0.00 37 1015.2
20260506102013 25 142 4.8 16.1 0.00 0.00 0.00 38 1015.6
20260506101013 25 172 4.8 11.3 0.00 0.00 0.00 37 1015.6
20260506100015 25 188 9.7 14.5 0.00 0.00 0.00 38 1015.7
20260506094023 24 166 4.8 12.9 0.00 0.00 0.00 38 1015.9
20260506093049 24 160 4.8 16.1 0.00 0.00 0.00 38 1015.9
20260506092012 24 139 3.2 12.9 0.00 0.00 0.00 40 1015.9
20260506090026 23 159 6.4 11.3 0.00 0.00 0.00 40 1016.2
20260506085012 23 155 3.2 14.5 0.00 0.00 0.00 39 1016.3
20260506084010 23 181 8.0 14.5 0.00 0.00 0.00 39 1016.3
20260506083010 23 168 6.4 12.9 0.00 0.00 0.00 41 1016.3
20260506081012 23 168 3.2 8.0 0.00 0.00 0.00 41 1016.3